| time (UTC) | temp C | wind direction | speed KPH | gust KPH | rain 1hr cm | rain 24hr cm | rain mn cm | humidity % | barometer mb |
| 20260505091215 | 5 | 304 | 6.4 | 8.0 | 0.00 | 0.00 | 0.00 | 60 | 1006.5 |
| 20260505090713 | 5 | 308 | 8.0 | 8.0 | 0.00 | 0.00 | 0.00 | 58 | 1006.4 |
| 20260505090211 | 5 | 319 | 11.3 | 14.5 | 0.00 | 0.00 | 0.00 | 57 | 1006.4 |
| 20260505085708 | 5 | 323 | 11.3 | 11.3 | 0.00 | 0.00 | 0.00 | 58 | 1006.3 |
| 20260505085206 | 5 | 263 | 0.0 | 4.8 | 0.00 | 0.00 | 0.00 | 58 | 1006.4 |
| 20260505084703 | 6 | 307 | 4.8 | 6.4 | 0.00 | 0.00 | 0.00 | 55 | 1006.0 |
| 20260505084202 | 6 | 319 | 8.0 | 9.7 | 0.00 | 0.00 | 0.00 | 54 | 1005.8 |
| 20260505083659 | 6 | 314 | 6.4 | 8.0 | 0.00 | 0.00 | 0.00 | 53 | 1005.6 |
| 20260505083155 | 6 | 346 | 9.7 | 9.7 | 0.00 | 0.00 | 0.00 | 52 | 1005.6 |
| 20260505082651 | 6 | 341 | 6.4 | 9.7 | 0.00 | 0.00 | 0.00 | 52 | 1005.7 |
| 20260505082148 | 6 | 331 | 4.8 | 11.3 | 0.00 | 0.00 | 0.00 | 51 | 1005.5 |
| 20260505081644 | 6 | 338 | 14.5 | 14.5 | 0.00 | 0.00 | 0.00 | 50 | 1005.5 |
| 20260505081142 | 6 | 352 | 8.0 | 11.3 | 0.00 | 0.00 | 0.00 | 50 | 1005.7 |
| 20260505080639 | 7 | 326 | 12.9 | 19.3 | 0.00 | 0.00 | 0.00 | 49 | 1005.6 |
| 20260505080134 | 6 | 346 | 8.0 | 12.9 | 0.00 | 0.00 | 0.00 | 50 | 1005.5 |
| 20260505075631 | 7 | 347 | 11.3 | 20.9 | 0.00 | 0.00 | 0.00 | 49 | 1005.6 |
| 20260505075128 | 7 | 334 | 12.9 | 24.1 | 0.00 | 0.00 | 0.00 | 48 | 1005.4 |
| 20260505074625 | 7 | 352 | 11.3 | 22.5 | 0.00 | 0.00 | 0.00 | 49 | 1005.3 |
| 20260505074122 | 7 | 331 | 12.9 | 24.1 | 0.00 | 0.00 | 0.00 | 48 | 1005.3 |
| 20260505073620 | 7 | 339 | 19.3 | 24.1 | 0.00 | 0.00 | 0.00 | 48 | 1005.5 |
| 20260505073118 | 7 | 324 | 22.5 | 32.2 | 0.00 | 0.00 | 0.00 | 47 | 1005.3 |
| 20260505072613 | 7 | 5 | 12.9 | 29.0 | 0.00 | 0.00 | 0.00 | 48 | 1005.1 |
| 20260505072110 | 7 | 346 | 14.5 | 24.1 | 0.00 | 0.00 | 0.00 | 48 | 1005.2 |
| 20260505071605 | 7 | 347 | 19.3 | 25.7 | 0.00 | 0.00 | 0.00 | 48 | 1005.0 |
| 20260505071103 | 7 | 339 | 20.9 | 35.4 | 0.00 | 0.00 | 0.00 | 49 | 1005.4 |
| 20260505070600 | 8 | 354 | 27.4 | 29.0 | 0.00 | 0.00 | 0.00 | 51 | 1005.4 |
| 20260505070056 | 8 | 354 | 12.9 | 29.0 | 0.00 | 0.00 | 0.00 | 52 | 1005.2 |
| 20260505065552 | 8 | 356 | 16.1 | 27.4 | 0.00 | 0.00 | 0.00 | 53 | 1005.3 |
| 20260505065049 | 8 | 319 | 9.7 | 24.1 | 0.00 | 0.00 | 0.00 | 54 | 1005.3 |
| 20260505064546 | 8 | 355 | 19.3 | 29.0 | 0.00 | 0.00 | 0.00 | 53 | 1005.3 |
| 20260505064044 | 8 | 322 | 11.3 | 16.1 | 0.00 | 0.00 | 0.00 | 52 | 1005.0 |
| 20260505063542 | 8 | 322 | 16.1 | 20.9 | 0.00 | 0.00 | 0.00 | 51 | 1005.1 |
| 20260505063037 | 8 | 333 | 14.5 | 27.4 | 0.00 | 0.00 | 0.00 | 52 | 1004.8 |
| 20260505062534 | 9 | 330 | 19.3 | 24.1 | 0.00 | 0.00 | 0.00 | 52 | 1004.9 |
| 20260505062031 | 9 | 332 | 17.7 | 29.0 | 0.00 | 0.00 | 0.00 | 52 | 1005.0 |
| 20260505061529 | 9 | 339 | 19.3 | 20.9 | 0.00 | 0.00 | 0.00 | 52 | 1004.8 |
| 20260505061026 | 9 | 334 | 17.7 | 35.4 | 0.00 | 0.00 | 0.00 | 51 | 1004.9 |
| 20260505060524 | 9 | 341 | 14.5 | 32.2 | 0.00 | 0.00 | 0.00 | 51 | 1004.8 |
| 20260505060020 | 10 | 342 | 17.7 | 37.0 | 0.00 | 0.00 | 0.00 | 50 | 1004.8 |
| 20260505055515 | 10 | 337 | 20.9 | 27.4 | 0.00 | 0.00 | 0.00 | 51 | 1004.5 |
| 20260505055013 | 10 | 324 | 11.3 | 25.7 | 0.00 | 0.00 | 0.00 | 50 | 1004.6 |
| 20260505054510 | 10 | 320 | 11.3 | 30.6 | 0.00 | 0.00 | 0.00 | 49 | 1004.4 |
| 20260505054008 | 10 | 338 | 25.7 | 33.8 | 0.00 | 0.00 | 0.00 | 48 | 1004.3 |
| 20260505053505 | 10 | 353 | 14.5 | 22.5 | 0.00 | 0.00 | 0.00 | 49 | 1004.4 |
| 20260505053001 | 10 | 335 | 20.9 | 32.2 | 0.00 | 0.00 | 0.00 | 49 | 1004.3 |
| 20260505052459 | 10 | 355 | 9.7 | 30.6 | 0.00 | 0.00 | 0.00 | 48 | 1004.1 |
| 20260505051955 | 11 | 317 | 27.4 | 29.0 | 0.00 | 0.00 | 0.00 | 48 | 1003.6 |
| 20260505051452 | 11 | 344 | 17.7 | 29.0 | 0.00 | 0.00 | 0.00 | 47 | 1003.7 |
| 20260505050951 | 11 | 347 | 19.3 | 22.5 | 0.00 | 0.00 | 0.00 | 48 | 1003.5 |
| 20260505050449 | 11 | 336 | 12.9 | 20.9 | 0.00 | 0.00 | 0.00 | 48 | 1003.2 |
| 20260505041416 | 12 | 347 | 14.5 | 25.7 | 0.00 | 0.00 | 0.00 | 49 | 1002.5 |
| 20260505040913 | 12 | 317 | 19.3 | 24.1 | 0.00 | 0.00 | 0.00 | 48 | 1002.5 |
| 20260505040411 | 12 | 356 | 19.3 | 27.4 | 0.00 | 0.00 | 0.00 | 48 | 1002.5 |
| 20260505035907 | 12 | 319 | 17.7 | 32.2 | 0.00 | 0.00 | 0.00 | 49 | 1002.2 |
| 20260505035403 | 12 | 338 | 11.3 | 19.3 | 0.00 | 0.00 | 0.00 | 49 | 1002.2 |
| 20260505034901 | 12 | 344 | 17.7 | 27.4 | 0.00 | 0.00 | 0.00 | 48 | 1002.1 |
| 20260505034357 | 13 | 337 | 14.5 | 24.1 | 0.00 | 0.00 | 0.00 | 47 | 1002.1 |
| 20260505033854 | 13 | 337 | 14.5 | 27.4 | 0.00 | 0.00 | 0.00 | 47 | 1001.7 |
| 20260505033351 | 13 | 326 | 22.5 | 30.6 | 0.00 | 0.00 | 0.00 | 47 | 1001.4 |
| 20260505032849 | 13 | 342 | 14.5 | 20.9 | 0.00 | 0.00 | 0.00 | 46 | 1001.4 |
| 20260505032345 | 13 | 345 | 17.7 | 29.0 | 0.00 | 0.00 | 0.00 | 46 | 1001.1 |
| 20260505031842 | 13 | 335 | 24.1 | 33.8 | 0.00 | 0.00 | 0.00 | 45 | 1000.8 |
| 20260505031339 | 13 | 336 | 14.5 | 33.8 | 0.00 | 0.00 | 0.00 | 43 | 1000.5 |
| 20260505030837 | 13 | 326 | 11.3 | 22.5 | 0.00 | 0.00 | 0.00 | 43 | 1000.5 |
| 20260505030332 | 13 | 339 | 12.9 | 25.7 | 0.00 | 0.00 | 0.00 | 43 | 1000.3 |
| 20260505025828 | 13 | 321 | 12.9 | 29.0 | 0.00 | 0.00 | 0.00 | 42 | 1000.0 |
| 20260505025326 | 13 | 315 | 14.5 | 25.7 | 0.00 | 0.00 | 0.00 | 42 | 1000.0 |
| 20260505024824 | 14 | 336 | 22.5 | 32.2 | 0.00 | 0.00 | 0.00 | 41 | 1000.2 |
| 20260505024321 | 14 | 328 | 22.5 | 41.8 | 0.00 | 0.00 | 0.00 | 40 | 1000.2 |
| 20260505023818 | 14 | 315 | 22.5 | 43.5 | 0.00 | 0.00 | 0.00 | 40 | 1000.1 |
| 20260505023315 | 15 | 316 | 29.0 | 37.0 | 0.00 | 0.00 | 0.00 | 41 | 1000.0 |
| 20260505022813 | 15 | 321 | 20.9 | 37.0 | 0.00 | 0.00 | 0.00 | 41 | 999.8 |
| 20260505022309 | 15 | 328 | 27.4 | 32.2 | 0.00 | 0.00 | 0.00 | 41 | 999.8 |
| 20260505021806 | 15 | 327 | 14.5 | 30.6 | 0.00 | 0.00 | 0.00 | 41 | 1000.1 |
| 20260505021303 | 15 | 315 | 27.4 | 40.2 | 0.00 | 0.00 | 0.00 | 41 | 999.7 |
| 20260505020759 | 15 | 321 | 29.0 | 40.2 | 0.00 | 0.00 | 0.00 | 41 | 999.6 |
| 20260505020254 | 15 | 319 | 25.7 | 35.4 | 0.00 | 0.00 | 0.00 | 40 | 999.5 |
| 20260505015752 | 16 | 329 | 20.9 | 37.0 | 0.00 | 0.00 | 0.00 | 41 | 999.4 |
| 20260505015249 | 16 | 312 | 16.1 | 30.6 | 0.00 | 0.00 | 0.00 | 41 | 999.3 |
| 20260505014746 | 16 | 296 | 24.1 | 30.6 | 0.00 | 0.00 | 0.00 | 42 | 999.2 |
| 20260505014243 | 16 | 319 | 14.5 | 30.6 | 0.00 | 0.00 | 0.00 | 41 | 998.9 |
| 20260505013739 | 16 | 318 | 19.3 | 38.6 | 0.00 | 0.00 | 0.00 | 40 | 998.8 |
| 20260505013237 | 16 | 294 | 27.4 | 32.2 | 0.00 | 0.00 | 0.00 | 40 | 998.7 |
| 20260505012735 | 16 | 308 | 48.3 | 48.3 | 0.00 | 0.00 | 0.00 | 39 | 998.8 |
| 20260505012232 | 16 | 309 | 22.5 | 35.4 | 0.00 | 0.00 | 0.00 | 39 | 998.5 |
| 20260505011727 | 17 | 302 | 27.4 | 32.2 | 0.00 | 0.00 | 0.00 | 39 | 998.7 |
| 20260505011225 | 17 | 323 | 16.1 | 30.6 | 0.00 | 0.00 | 0.00 | 38 | 998.4 |
| 20260505010720 | 17 | 310 | 12.9 | 32.2 | 0.00 | 0.00 | 0.00 | 38 | 998.4 |
| 20260505010217 | 17 | 321 | 22.5 | 41.8 | 0.00 | 0.00 | 0.00 | 36 | 998.4 |
| 20260505005714 | 17 | 311 | 27.4 | 38.6 | 0.00 | 0.00 | 0.00 | 36 | 998.4 |
| 20260505005211 | 17 | 302 | 27.4 | 45.1 | 0.00 | 0.00 | 0.00 | 35 | 998.3 |
| 20260505004708 | 17 | 305 | 22.5 | 43.5 | 0.00 | 0.00 | 0.00 | 36 | 998.1 |
| 20260505004204 | 17 | 315 | 32.2 | 38.6 | 0.00 | 0.00 | 0.00 | 37 | 998.2 |
| 20260505003701 | 17 | 307 | 16.1 | 29.0 | 0.00 | 0.00 | 0.00 | 40 | 998.0 |
| 20260505003159 | 18 | 307 | 14.5 | 32.2 | 0.00 | 0.00 | 0.00 | 38 | 997.9 |
| 20260505002655 | 18 | 311 | 30.6 | 41.8 | 0.00 | 0.00 | 0.00 | 36 | 997.6 |
| 20260505002153 | 18 | 320 | 14.5 | 35.4 | 0.00 | 0.00 | 0.00 | 38 | 997.8 |
| 20260505001650 | 18 | 328 | 16.1 | 25.7 | 0.00 | 0.00 | 0.00 | 39 | 997.5 |
| 20260505001147 | 18 | 319 | 20.9 | 25.7 | 0.00 | 0.00 | 0.00 | 36 | 997.1 |
| 20260505000644 | 18 | 327 | 20.9 | 29.0 | 0.00 | 0.00 | 0.00 | 37 | 997.4 |
| 20260505000142 | 19 | 297 | 19.3 | 35.4 | 0.00 | 0.00 | 0.00 | 38 | 997.2 |
| 20260504235638 | 19 | 305 | 35.4 | 45.1 | 0.00 | 0.00 | 0.00 | 37 | 997.0 |
| 20260504235135 | 19 | 326 | 19.3 | 32.2 | 0.00 | 0.00 | 0.00 | 37 | 997.0 |
| 20260504234632 | 20 | 294 | 30.6 | 41.8 | 0.00 | 0.00 | 0.00 | 36 | 996.9 |
| 20260504234130 | 20 | 305 | 27.4 | 40.2 | 0.00 | 0.00 | 0.00 | 37 | 996.9 |
| 20260504233625 | 20 | 306 | 14.5 | 29.0 | 0.00 | 0.00 | 0.00 | 38 | 997.0 |
| 20260504233121 | 20 | 298 | 32.2 | 37.0 | 0.00 | 0.00 | 0.00 | 38 | 996.9 |
| 20260504232619 | 20 | 274 | 24.1 | 40.2 | 0.00 | 0.00 | 0.00 | 36 | 997.1 |
| 20260504232116 | 20 | 286 | 24.1 | 35.4 | 0.00 | 0.00 | 0.00 | 37 | 996.7 |
| 20260504231613 | 20 | 303 | 35.4 | 38.6 | 0.00 | 0.00 | 0.00 | 35 | 996.7 |
| 20260504231109 | 20 | 320 | 22.5 | 32.2 | 0.00 | 0.00 | 0.00 | 36 | 996.8 |
| 20260504230605 | 20 | 304 | 20.9 | 30.6 | 0.00 | 0.00 | 0.00 | 37 | 996.8 |
| 20260504230104 | 20 | 304 | 29.0 | 32.2 | 0.00 | 0.00 | 0.00 | 37 | 997.0 |
| 20260504225601 | 20 | 337 | 29.0 | 32.2 | 0.00 | 0.00 | 0.00 | 37 | 997.0 |
| 20260504225058 | 21 | 312 | 16.1 | 29.0 | 0.00 | 0.00 | 0.00 | 40 | 996.7 |
| 20260504224554 | 21 | 271 | 16.1 | 33.8 | 0.00 | 0.00 | 0.00 | 38 | 996.9 |
| 20260504224052 | 21 | 311 | 14.5 | 33.8 | 0.00 | 0.00 | 0.00 | 40 | 996.3 |
| 20260504223549 | 21 | 313 | 22.5 | 40.2 | 0.00 | 0.00 | 0.00 | 39 | 996.6 |
| 20260504223044 | 21 | 307 | 24.1 | 38.6 | 0.00 | 0.00 | 0.00 | 40 | 996.6 |
| 20260504222541 | 21 | 295 | 24.1 | 41.8 | 0.00 | 0.00 | 0.00 | 40 | 996.6 |
| 20260504222039 | 21 | 296 | 20.9 | 40.2 | 0.00 | 0.00 | 0.00 | 39 | 996.6 |
| 20260504221536 | 22 | 281 | 33.8 | 46.7 | 0.00 | 0.00 | 0.00 | 38 | 996.3 |
| 20260504221032 | 22 | 317 | 27.4 | 51.5 | 0.00 | 0.00 | 0.00 | 37 | 996.2 |
| 20260504220529 | 22 | 271 | 38.6 | 51.5 | 0.00 | 0.00 | 0.00 | 38 | 996.3 |
| 20260504220026 | 22 | 294 | 24.1 | 35.4 | 0.00 | 0.00 | 0.00 | 41 | 996.2 |
| 20260504215522 | 22 | 305 | 37.0 | 41.8 | 0.00 | 0.00 | 0.00 | 40 | 996.0 |
| 20260504215020 | 22 | 316 | 38.6 | 49.9 | 0.00 | 0.00 | 0.00 | 40 | 996.0 |
| 20260504214516 | 22 | 309 | 22.5 | 41.8 | 0.00 | 0.00 | 0.00 | 41 | 996.0 |
| 20260504214012 | 22 | 304 | 35.4 | 43.5 | 0.00 | 0.00 | 0.00 | 39 | 996.0 |
| 20260504213509 | 22 | 295 | 37.0 | 43.5 | 0.00 | 0.00 | 0.00 | 41 | 995.8 |
| 20260504213006 | 22 | 315 | 27.4 | 54.7 | 0.00 | 0.00 | 0.00 | 40 | 995.6 |
| 20260504212502 | 22 | 308 | 32.2 | 51.5 | 0.00 | 0.00 | 0.00 | 39 | 995.8 |
| 20260504211959 | 23 | 297 | 24.1 | 37.0 | 0.00 | 0.00 | 0.00 | 40 | 995.8 |
| 20260504211456 | 23 | 264 | 22.5 | 40.2 | 0.00 | 0.00 | 0.00 | 42 | 995.7 |
| 20260504210953 | 23 | 312 | 12.9 | 38.6 | 0.00 | 0.00 | 0.00 | 43 | 995.9 |
| 20260504210450 | 23 | 320 | 16.1 | 37.0 | 0.00 | 0.00 | 0.00 | 42 | 995.7 |
| 20260504205947 | 23 | 270 | 14.5 | 30.6 | 0.00 | 0.00 | 0.00 | 43 | 995.6 |
| 20260504205444 | 23 | 318 | 27.4 | 40.2 | 0.00 | 0.00 | 0.00 | 43 | 995.8 |
| 20260504204943 | 23 | 289 | 17.7 | 41.8 | 0.00 | 0.00 | 0.00 | 43 | 995.7 |
| 20260504204441 | 23 | 305 | 17.7 | 32.2 | 0.00 | 0.00 | 0.00 | 42 | 995.8 |
| 20260504203939 | 23 | 270 | 20.9 | 33.8 | 0.00 | 0.00 | 0.00 | 43 | 995.7 |
| 20260504203437 | 23 | 282 | 12.9 | 29.0 | 0.00 | 0.00 | 0.00 | 41 | 995.7 |
| 20260504202933 | 23 | 330 | 12.9 | 32.2 | 0.00 | 0.00 | 0.00 | 42 | 995.6 |
| 20260504202429 | 23 | 285 | 16.1 | 32.2 | 0.00 | 0.00 | 0.00 | 41 | 995.8 |
| 20260504201926 | 23 | 292 | 11.3 | 37.0 | 0.00 | 0.00 | 0.00 | 41 | 995.9 |
| 20260504201424 | 23 | 258 | 20.9 | 41.8 | 0.00 | 0.00 | 0.00 | 41 | 995.9 |
| 20260504200921 | 23 | 268 | 6.4 | 35.4 | 0.00 | 0.00 | 0.00 | 41 | 995.9 |
| 20260504200417 | 23 | 275 | 17.7 | 33.8 | 0.00 | 0.00 | 0.00 | 42 | 995.8 |
| 20260504195914 | 23 | 250 | 24.1 | 38.6 | 0.00 | 0.00 | 0.00 | 44 | 995.7 |
| 20260504195410 | 22 | 247 | 32.2 | 41.8 | 0.00 | 0.00 | 0.00 | 42 | 995.9 |
| 20260504194907 | 22 | 272 | 37.0 | 43.5 | 0.00 | 0.00 | 0.00 | 42 | 995.9 |
| 20260504194403 | 22 | 248 | 17.7 | 37.0 | 0.00 | 0.00 | 0.00 | 45 | 996.1 |
| 20260504193859 | 23 | 258 | 27.4 | 38.6 | 0.00 | 0.00 | 0.00 | 42 | 995.9 |
| 20260504193356 | 23 | 251 | 14.5 | 45.1 | 0.00 | 0.00 | 0.00 | 42 | 995.7 |
| 20260504192855 | 23 | 252 | 27.4 | 35.4 | 0.00 | 0.00 | 0.00 | 42 | 995.9 |
| 20260504192352 | 24 | 240 | 33.8 | 41.8 | 0.00 | 0.00 | 0.00 | 40 | 995.9 |
| 20260504191850 | 24 | 246 | 24.1 | 53.1 | 0.00 | 0.00 | 0.00 | 40 | 996.2 |
| 20260504191348 | 23 | 295 | 12.9 | 53.1 | 0.00 | 0.00 | 0.00 | 41 | 995.9 |
| 20260504190843 | 22 | 268 | 11.3 | 40.2 | 0.00 | 0.00 | 0.00 | 44 | 995.9 |
| 20260504190339 | 23 | 240 | 41.8 | 45.1 | 0.00 | 0.00 | 0.00 | 42 | 996.0 |
| 20260504185836 | 23 | 232 | 16.1 | 30.6 | 0.00 | 0.00 | 0.00 | 43 | 996.3 |
| 20260504185333 | 23 | 254 | 14.5 | 35.4 | 0.00 | 0.00 | 0.00 | 42 | 995.9 |
| 20260504184829 | 23 | 251 | 30.6 | 41.8 | 0.00 | 0.00 | 0.00 | 40 | 996.0 |
| 20260504184325 | 23 | 251 | 27.4 | 51.5 | 0.00 | 0.00 | 0.00 | 42 | 995.8 |
| 20260504183821 | 23 | 228 | 27.4 | 45.1 | 0.00 | 0.00 | 0.00 | 40 | 995.8 |
| 20260504183319 | 23 | 241 | 29.0 | 48.3 | 0.00 | 0.00 | 0.00 | 40 | 996.0 |
| 20260504182816 | 23 | 259 | 19.3 | 40.2 | 0.00 | 0.00 | 0.00 | 40 | 996.1 |
| 20260504182314 | 23 | 244 | 40.2 | 51.5 | 0.00 | 0.00 | 0.00 | 39 | 995.8 |
| 20260504181811 | 23 | 304 | 22.5 | 51.5 | 0.00 | 0.00 | 0.00 | 39 | 996.1 |
| 20260504181308 | 23 | 249 | 40.2 | 43.5 | 0.00 | 0.00 | 0.00 | 41 | 996.1 |
| 20260504180807 | 23 | 250 | 29.0 | 51.5 | 0.00 | 0.00 | 0.00 | 41 | 996.1 |
| 20260504180305 | 23 | 235 | 24.1 | 45.1 | 0.00 | 0.00 | 0.00 | 41 | 996.1 |
| 20260504175803 | 22 | 254 | 22.5 | 48.3 | 0.00 | 0.00 | 0.00 | 41 | 996.0 |
| 20260504175259 | 22 | 240 | 41.8 | 51.5 | 0.00 | 0.00 | 0.00 | 40 | 996.3 |
| 20260504174757 | 22 | 246 | 32.2 | 45.1 | 0.00 | 0.00 | 0.00 | 42 | 996.3 |
| 20260504174255 | 22 | 250 | 45.1 | 51.5 | 0.00 | 0.00 | 0.00 | 42 | 996.4 |
| 20260504173751 | 22 | 257 | 45.1 | 51.5 | 0.00 | 0.00 | 0.00 | 42 | 996.2 |
| 20260504173248 | 22 | 233 | 32.2 | 49.9 | 0.00 | 0.00 | 0.00 | 42 | 996.6 |
| 20260504172745 | 22 | 236 | 27.4 | 56.3 | 0.00 | 0.00 | 0.00 | 41 | 996.4 |
| 20260504172241 | 22 | 242 | 53.1 | 54.7 | 0.00 | 0.00 | 0.00 | 41 | 996.4 |
| 20260504171737 | 22 | 237 | 46.7 | 54.7 | 0.00 | 0.00 | 0.00 | 41 | 996.5 |
| 20260504171235 | 22 | 247 | 45.1 | 61.2 | 0.00 | 0.00 | 0.00 | 39 | 996.5 |
| 20260504170732 | 22 | 249 | 37.0 | 56.3 | 0.00 | 0.00 | 0.00 | 39 | 996.7 |
| 20260504170229 | 22 | 231 | 53.1 | 57.9 | 0.00 | 0.00 | 0.00 | 42 | 996.6 |
| 20260504160147 | 20 | 234 | 40.2 | 54.7 | 0.00 | 0.00 | 0.00 | 42 | 997.3 |
| 20260504151115 | 19 | 237 | 38.6 | 54.7 | 0.00 | 0.00 | 0.00 | 45 | 998.0 |
| 20260504150612 | 19 | 226 | 30.6 | 54.7 | 0.00 | 0.00 | 0.00 | 46 | 997.6 |
| 20260504150109 | 18 | 242 | 41.8 | 57.9 | 0.00 | 0.00 | 0.00 | 46 | 997.9 |
| 20260504141038 | 17 | 221 | 33.8 | 45.1 | 0.00 | 0.00 | 0.00 | 46 | 998.9 |
| 20260504140534 | 17 | 235 | 29.0 | 41.8 | 0.00 | 0.00 | 0.00 | 48 | 998.7 |
| 20260504130459 | 15 | 245 | 27.4 | 38.6 | 0.00 | 0.00 | 0.00 | 53 | 1000.0 |
| 20260504110346 | 10 | 194 | 9.7 | 14.5 | 0.00 | 0.00 | 0.00 | 68 | 1001.0 |
| 20260504100303 | 11 | 216 | 8.0 | 12.9 | 0.00 | 0.00 | 0.00 | 65 | 1001.7 |